Home > Weather > Chur > Past weeks

Flag for Switzerland Weather for the Past 2 Weeks in Chur, Graubünden, Switzerland

Now
47 °F

Cool.


Feels Like: 44 °F
Forecast: 47 / 54 °F
Wind: 6 mph from South

Location: Chur

Current Time: Feb 8, 2016 at 8:57:05 PM

Latest Report: Feb 8, 2016 at 8:00 PM


Visibility: N/A

Pressure: 29.84 "Hg (27.77 "Hg at 592m altitude)

Humidity: 64%

Dew point: 35 °F

Location of ChurLocation

Historic Weather in Chur — Graph

°F

Chur Temperature Yesterday

Maximum temperature yesterday: 56 °F (at 1:00 PM)
Minimum temperature yesterday: 39 °F (at 11:00 PM)
Average temperature yesterday: 48 °F

High & Low Weather Summary for the Past Weeks

 TemperatureHumidityPressure
High57 °F (Jan 30, 2:00 PM)98% (Feb 5, 8:00 AM)30.63 "Hg (Feb 5, 8:00 AM)
Low32 °F (Jan 28, 7:00 AM)33% (Jan 30, 3:00 PM)29.68 "Hg (Feb 7, 1:00 PM)
Average43 °F74%30.27 "Hg
* Reported Jan 24 7:00 PM — Feb 8 7:00 PM, Chur, Weather by CustomWeather, © 2016

Note: Actual official high and low records may vary slightly from our data, if they occured in-between our weather recording intervals... More about our weather records

Advertising

Chur Weather History for the Previous 24 Hours

 ConditionsComfort  
Time TempWeatherWind HumidityBarometerVisibility
7:00 PM
Mon, Feb 8
49 °FOvercast.12 mph56%29.83 "Hg11 mi
6:00 PM48 °FCool.15 mph62%29.79 "HgN/A
5:00 PM51 °FCool.12 mph54%29.77 "HgN/A
4:00 PM53 °FOvercast.12 mph47%29.76 "Hg19 mi
3:00 PM52 °FCool.14 mph54%29.77 "HgN/A
2:00 PM50 °FCool.15 mph61%29.78 "HgN/A
1:00 PM48 °FOvercast.17 mph62%29.80 "Hg16 mi
12:00 PM47 °FCool.14 mph62%29.85 "HgN/A
11:00 AM43 °FQuite cool.16 mph72%29.91 "HgN/A
10:00 AM40 °FOvercast.13 mph78%29.93 "Hg16 mi
9:00 AM38 °FChilly.10 mph83%29.96 "HgN/A
8:00 AM36 °FChilly.8 mph88%29.96 "HgN/A
7:00 AM36 °FClear.3 mph89%29.96 "Hg12 mi
6:00 AM36 °FChilly.7 mph89%29.96 "HgN/A
5:00 AM36 °FChilly.6 mph91%29.97 "HgN/A
3:00 AM38 °FChilly.6 mph90%29.99 "HgN/A
2:00 AM38 °FChilly.6 mph91%30.00 "HgN/A
12:00 AM39 °FChilly.1 mph90%30.00 "HgN/A
11:00 PM
Sun, Feb 7
39 °FChilly.3 mph90%30.00 "HgN/A
10:00 PM40 °FDrizzle. Low clouds.6 mph90%29.98 "Hg2 mi
9:00 PM41 °FQuite cool.5 mph90%29.96 "HgN/A
8:00 PM41 °FQuite cool.3 mph89%29.94 "HgN/A
Weather by CustomWeather, © 2016

See weather overviewHow to use our weather pages